Location: Caltech
(34.1382°N, 118.1253°W)
Time: 01:03:11
(UTC-07:00)

Cosmos 1937 Rocket - Visible Passes

Search period start: 29 August 2014 00:00
Search period end: 08 September 2014 00:00
Orbit: 748 x 781 km, 74.1° (Epoch: 25 August)

Date Brightness Start Highest point End Pass type
(mag) Time Alt. Az. Time Alt. Az. Time Alt. Az.
29 Aug 3.9 04:15:08 40° SSE 04:16:41 57° ESE 04:21:44 10° NNE visible
29 Aug 5.2 05:56:14 10° W 05:59:01 15° WNW 06:01:48 10° NNW visible
30 Aug 4.9 03:38:30 30° ESE 03:38:52 30° E 03:43:19 10° NE visible
30 Aug 4.6 05:18:44 20° W 05:20:46 26° WNW 05:25:02 10° N visible
31 Aug 5.9 03:01:47 16° E 03:01:47 16° E 03:04:14 10° ENE visible
31 Aug 3.7 04:42:01 44° W 04:42:39 46° WNW 04:47:36 10° N visible
01 Sep 3.5 04:05:15 71° N 04:05:15 71° N 04:09:49 10° NNE visible
02 Sep 4.8 03:28:25 36° NE 03:28:25 36° NE 03:31:43 10° NNE visible
02 Sep 5.1 05:08:38 16° WNW 05:09:00 16° WNW 05:12:10 10° NNW visible
03 Sep 5.9 02:51:32 18° ENE 02:51:32 18° ENE 02:53:13 10° NE visible
03 Sep 4.7 04:31:45 27° NW 04:31:45 27° NW 04:35:13 10° N visible
04 Sep 4.8 03:54:50 31° NNW 03:54:50 31° NNW 03:57:42 10° N visible
05 Sep 5.4 03:17:52 24° NNE 03:17:52 24° NNE 03:19:52 10° NNE visible
06 Sep 6.2 02:40:52 15° NE 02:40:52 15° NE 02:41:41 10° NNE visible
06 Sep 5.6 04:21:05 15° NW 04:21:05 15° NW 04:22:28 10° NNW visible
07 Sep 5.6 03:44:02 17° NNW 03:44:02 17° NNW 03:45:22 10° N visible
